Location: The Saddle
(36.8333°N, 80.3417°W)
Time: 09:10:56
(UTC-04:00)

A-11 Canister half - Pass Details

Date: 30 May 2024
Orbit: 1515 x 1685 km, 47.2° (Epoch: 17 June)

Event Time Altitude Azimuth Distance (km) Brightness Sun altitude
Rises 04:04:27 0° 281° (W) 4,779 11.3 -19.5°
Reaches altitude 10° 04:07:49 10° 288° (WNW) 3,770 10.8 -19.1°
Maximum altitude 04:16:48 44° 359° (N) 2,018 9.9 -17.9°
Drops below altitude 10° 04:25:35 10° 70° (ENE) 3,681 12.0 -16.7°
Sets 04:28:49 0° 77° (ENE) 4,657 12.6 -16.2°
